CW8014 Weather Reports


Display with metric or nautical units.
time (UTC)temp
F
wind
direction
speed
MPH
gust
MPH
rain 1hr
in
rain 24hr
in
rain mn
in
humidity
%
barometer
mb
20260904015408 66 180 3.0 8.0 0.01 0.02 0.01 93 1011.5
20260904014407 66 206 4.0 11.0 0.01 0.02 0.01 93 1011.7
20260904013407 66 198 4.0 11.0 0.00 0.01 0.00 93 1012.1
20260904010407 66 163 3.0 7.0 0.00 0.01 0.00 92 1012.4
20260904004407 65 189 5.0 10.0 0.00 0.01 0.00 92 1012.5
20260904003408 65 175 3.0 7.0 0.00 0.01 0.00 92 1012.8
20260904002407 65 192 1.0 6.0 0.00 0.01 0.00 92 1013.0
20260904001407 65 178 3.0 7.0 0.00 0.01 0.00 91 1013.0
20260904000407 65 167 3.0 9.0 0.00 0.01 0.00 91 1013.1
20260903234407 65 188 1.0 4.0 0.00 0.01 0.00 91 1013.7
20260903233407 65 215 2.0 8.0 0.00 0.01 0.00 90 1013.9
20260903231407 65 155 3.0 5.0 0.00 0.01 0.00 90 1014.1
20260903225407 65 190 2.0 8.0 0.00 0.01 0.00 91 1014.1
20260903223407 65 240 2.0 7.0 0.00 0.01 0.00 91 1014.5
20260903222408 64 196 1.0 4.0 0.00 0.01 0.00 90 1014.6
20260903221407 65 215 0.0 3.0 0.00 0.01 0.00 90 1014.7
20260903215411 65 205 2.0 5.0 0.00 0.01 0.01 89 1014.7
20260903214409 65 251 2.0 5.0 0.00 0.01 0.01 89 1015.0
20260903212409 65 231 3.0 7.0 0.00 0.01 0.01 88 1015.2
20260903211409 65 221 1.0 3.0 0.00 0.01 0.01 88 1015.1
20260903210410 65 231 3.0 6.0 0.00 0.01 0.01 87 1015.1
20260903205409 65 230 1.0 5.0 0.00 0.01 0.01 87 1015.4
20260903204409 65 197 2.0 5.0 0.00 0.01 0.01 86 1015.3
20260903203409 65 268 2.0 6.0 0.00 0.01 0.01 86 1015.3
20260903202410 65 220 3.0 10.0 0.00 0.01 0.01 85 1015.2
20260903201409 65 242 2.0 5.0 0.00 0.01 0.01 85 1015.5
20260903200409 65 226 2.0 7.0 0.00 0.01 0.01 85 1015.5
20260903195409 65 249 3.0 7.0 0.00 0.01 0.01 85 1015.6
20260903194409 64 248 2.0 5.0 0.00 0.01 0.01 85 1015.4
20260903193409 64 226 2.0 4.0 0.00 0.01 0.01 84 1015.5
20260903190410 65 243 3.0 8.0 0.00 0.01 0.01 83 1015.5
20260903185409 65 204 2.0 6.0 0.00 0.01 0.01 82 1015.7
20260903184409 66 279 3.0 7.0 0.00 0.01 0.01 81 1015.4
20260903183409 66 246 3.0 8.0 0.00 0.01 0.01 81 1015.5
20260903182409 67 250 4.0 13.0 0.00 0.01 0.01 80 1015.2
20260903181409 67 250 4.0 9.0 0.00 0.01 0.01 80 1015.3
20260903180409 67 282 3.0 7.0 0.00 0.01 0.01 81 1015.4
20260903174409 68 288 3.0 7.0 0.00 0.01 0.01 80 1015.2
20260903172411 68 304 5.0 12.0 0.00 0.01 0.01 78 1015.4
20260903171409 68 271 5.0 12.0 0.00 0.01 0.01 78 1015.1
20260903165410 69 281 7.0 15.0 0.00 0.01 0.01 77 1015.0
20260903164409 69 226 6.0 16.0 0.00 0.01 0.01 77 1015.0
20260903163409 69 262 7.0 12.0 0.00 0.01 0.01 77 1015.0
20260903162409 70 271 8.0 17.0 0.00 0.01 0.01 76 1015.0
20260903161409 70 296 5.0 11.0 0.00 0.01 0.01 77 1015.0
20260903160409 70 327 8.0 20.0 0.00 0.01 0.01 75 1015.0
20260903155411 71 263 9.0 21.0 0.00 0.01 0.01 73 1014.9
20260903154410 70 287 8.0 20.0 0.00 0.01 0.01 75 1014.6
20260903153410 71 281 10.0 19.0 0.00 0.01 0.01 73 1014.7
20260903130403 73 268 7.0 15.0 0.00 0.01 0.01 76 1014.1
20260903125403 73 258 7.0 15.0 0.00 0.06 0.01 77 1014.1
20260903124404 72 226 8.0 19.0 0.00 0.06 0.01 78 1013.9
20260903123403 72 297 9.0 19.0 0.00 0.06 0.01 78 1013.9
20260903122403 71 246 6.0 15.0 0.00 0.06 0.01 80 1013.9
20260903121403 71 239 8.0 14.0 0.00 0.06 0.01 80 1013.8
20260903120404 71 261 6.0 13.0 0.00 0.06 0.01 82 1013.8
20260903115405 71 248 8.0 19.0 0.00 0.06 0.01 82 1013.8
20260903114403 71 234 5.0 13.0 0.00 0.06 0.01 84 1013.7
20260903113403 71 264 7.0 14.0 0.01 0.06 0.01 85 1013.5
20260903112404 70 183 5.0 15.0 0.01 0.06 0.01 86 1013.3
20260903111404 70 229 6.0 17.0 0.01 0.06 0.01 88 1013.6
20260903103403 68 244 4.0 11.0 0.00 0.06 0.00 90 1014.0
20260903102403 69 218 6.0 13.0 0.00 0.06 0.00 89 1014.1
20260903101405 68 197 6.0 11.0 0.00 0.06 0.00 90 1013.9
20260903100403 67 185 4.0 11.0 0.00 0.06 0.00 92 1013.9
20260903095404 66 265 4.0 11.0 0.00 0.06 0.00 92 1014.0
20260903094405 66 193 5.0 12.0 0.00 0.06 0.00 92 1014.0
20260903093404 66 23 4.0 9.0 0.00 0.06 0.00 91 1014.1
20260903091404 66 186 4.0 9.0 0.00 0.06 0.00 91 1013.9
20260903084404 65 178 3.0 9.0 0.00 0.06 0.00 92 1014.1
20260903083404 65 201 4.0 11.0 0.00 0.06 0.00 91 1014.2
20260903081404 65 238 4.0 12.0 0.00 0.06 0.00 88 1014.1
20260903075405 65 144 3.0 13.0 0.00 0.06 0.00 88 1014.0
20260903074404 65 168 5.0 16.0 0.00 0.06 0.00 88 1014.0
20260903073404 65 111 5.0 14.0 0.00 0.06 0.00 88 1014.0
20260903072405 65 184 6.0 18.0 0.00 0.06 0.00 88 1013.9
20260903071404 64 284 5.0 13.0 0.00 0.06 0.00 88 1014.0
20260903065404 64 143 5.0 12.0 0.00 0.06 0.00 88 1014.0
20260903064405 64 174 4.0 14.0 0.00 0.06 0.00 88 1013.8
20260903063404 64 146 5.0 9.0 0.00 0.06 0.00 88 1013.9
20260903062404 64 190 4.0 11.0 0.00 0.06 0.00 87 1014.2
20260903061404 64 230 5.0 15.0 0.00 0.06 0.00 86 1014.3
20260903055404 64 185 5.0 14.0 0.00 0.06 0.00 85 1014.3
20260903054404 64 202 5.0 10.0 0.00 0.06 0.00 85 1014.5
20260903053404 64 242 4.0 8.0 0.00 0.06 0.00 84 1014.5
20260903052404 64 202 5.0 12.0 0.00 0.06 0.00 84 1014.2
20260903051404 64 206 5.0 10.0 0.00 0.06 0.00 84 1014.2
20260903050405 64 197 4.0 11.0 0.00 0.06 0.00 84 1014.5
20260903044404 64 153 5.0 11.0 0.00 0.06 0.00 84 1014.4
20260903043404 64 162 5.0 16.0 0.00 0.06 0.00 84 1014.6
20260903042404 64 185 6.0 15.0 0.00 0.06 0.00 83 1014.5
20260903040404 64 222 6.0 13.0 0.00 0.06 0.00 84 1014.8
20260903035409 64 213 6.0 14.0 0.00 0.06 0.00 84 1015.0
20260903033409 63 194 5.0 14.0 0.00 0.06 0.00 85 1015.0
20260903032409 63 133 4.0 8.0 0.00 0.06 0.00 86 1015.2
20260903031410 62 171 5.0 15.0 0.00 0.06 0.00 87 1015.3
20260903030409 62 180 5.0 9.0 0.00 0.06 0.00 88 1015.2
20260903025409 62 166 5.0 13.0 0.00 0.06 0.00 90 1015.3
20260903024409 62 169 4.0 9.0 0.00 0.06 0.00 91 1015.4
20260903023409 61 167 4.0 10.0 0.00 0.06 0.00 92 1015.6
20260903021410 61 165 5.0 10.0 0.00 0.06 0.00 93 1015.8
20260903020409 61 157 5.0 9.0 0.00 0.06 0.00 93 1016.1